• In Belarus
  • List of Countries
  • For 7 days
  • Water Temperature
  • Satellite Maps
  • Weather Map
  • Weather Widgets
  • user-avatar
    Login

    Hourly Weather Bijeljina

    Today, 21 January, Sunday

    Time Temperature Precipitation Wind Pressure Humidity
    00:00 0°C° 0 mm 3 mps 749 mmHg 80%
    01:00 +1°C° 0 mm 2 mps 748 mmHg 79%
    02:00 +1°C° 0 mm 2 mps 747 mmHg 77%
    03:00 +2°C° 0 mm 2 mps 747 mmHg 74%
    04:00 +1°C° 0 mm 3 mps 746 mmHg 71%
    05:00 +1°C° 0.1 mm 3 mps 745 mmHg 71%
    06:00 +2°C° 0.1 mm 3 mps 745 mmHg 70%
    07:00 +2°C° 0.1 mm 3 mps 744 mmHg 70%
    08:00 +3°C° 0.4 mm 3 mps 744 mmHg 70%
    09:00 +3°C° 0.4 mm 3 mps 744 mmHg 71%
    10:00 +4°C° 0.4 mm 3 mps 743 mmHg 72%
    11:00 +5°C° 1.2 mm 2 mps 744 mmHg 76%
    12:00 +5°C° 1.2 mm 2 mps 744 mmHg 81%
    13:00 +5°C° 1.2 mm 2 mps 744 mmHg 86%
    14:00 +4°C° 0.7 mm 2 mps 744 mmHg 86%
    15:00 +3°C° 0.7 mm 3 mps 745 mmHg 87%
    16:00 +3°C° 0.7 mm 4 mps 746 mmHg 87%
    17:00 +3°C° 0.1 mm 4 mps 747 mmHg 86%
    18:00 +1°C° 0.1 mm 5 mps 747 mmHg 85%
    19:00 +1°C° 0.1 mm 5 mps 748 mmHg 85%
    20:00 +1°C° 0.1 mm 5 mps 749 mmHg 85%
    21:00 0°C° 0.1 mm 4 mps 750 mmHg 86%
    22:00 0°C° 0.1 mm 4 mps 751 mmHg 86%
    23:00 -1°C° 0 mm 5 mps 751 mmHg 86%

    Tomorrow, 22 January, Monday

    Time Temperature Precipitation Wind Pressure Humidity
    00:00 -1°C° 0 mm 5 mps 752 mmHg 85%
    01:00 -1°C° 0 mm 5 mps 752 mmHg 85%
    02:00 -1°C° 0 mm 5 mps 752 mmHg 84%
    03:00 -2°C° 0 mm 5 mps 753 mmHg 84%
    04:00 -2°C° 0 mm 5 mps 753 mmHg 83%
    05:00 -2°C° 0 mm 4 mps 753 mmHg 83%
    06:00 -2°C° 0 mm 4 mps 753 mmHg 83%
    07:00 -2°C° 0 mm 3 mps 753 mmHg 84%
    08:00 -1°C° 0 mm 3 mps 754 mmHg 80%
    09:00 -1°C° 0 mm 3 mps 754 mmHg 77%
    10:00 -1°C° 0 mm 4 mps 754 mmHg 74%
    11:00 +1°C° 0 mm 3 mps 754 mmHg 71%
    12:00 +1°C° 0 mm 3 mps 754 mmHg 68%
    13:00 +2°C° 0 mm 3 mps 754 mmHg 66%
    14:00 +2°C° 0 mm 3 mps 754 mmHg 68%
    15:00 +3°C° 0 mm 2 mps 755 mmHg 69%
    16:00 +3°C° 0 mm 1 mps 755 mmHg 71%
    17:00 +3°C° 0 mm 1 mps 755 mmHg 73%
    18:00 +2°C° 0 mm 1 mps 755 mmHg 75%
    19:00 +1°C° 0 mm 1 mps 756 mmHg 78%
    20:00 +1°C° 0 mm 1 mps 756 mmHg 78%
    21:00 +1°C° 0 mm 1 mps 757 mmHg 79%
    22:00 +1°C° 0 mm 1 mps 757 mmHg 79%
    23:00 +1°C° 0 mm 1 mps 757 mmHg 79%

    Day after tomorrow, 23 January, Tuesday

    Time Temperature Precipitation Wind Pressure Humidity
    00:00 +1°C° 0 mm 1 mps 757 mmHg 79%
    01:00 0°C° 0 mm 1 mps 757 mmHg 79%
    02:00 0°C° 0 mm 1 mps 758 mmHg 78%
    03:00 0°C° 0 mm 1 mps 758 mmHg 78%
    04:00 0°C° 0 mm 1 mps 758 mmHg 77%
    05:00 0°C° 0 mm 1 mps 759 mmHg 76%
    06:00 +1°C° 0 mm 1 mps 759 mmHg 75%
    07:00 0°C° 0 mm 0 mps 760 mmHg 74%
    08:00 +1°C° 0 mm 0 mps 760 mmHg 69%
    09:00 +2°C° 0 mm 0 mps 760 mmHg 65%
    10:00 +3°C° 0 mm 0 mps 761 mmHg 60%
    11:00 +3°C° 0 mm 0 mps 761 mmHg 59%
    12:00 +5°C° 0 mm 1 mps 761 mmHg 57%
    13:00 +5°C° 0 mm 1 mps 761 mmHg 56%
    14:00 +5°C° 0 mm 1 mps 761 mmHg 60%
    15:00 +5°C° 0 mm 1 mps 762 mmHg 64%
    16:00 +4°C° 0 mm 1 mps 762 mmHg 67%
    17:00 +4°C° 0 mm 1 mps 763 mmHg 70%
    18:00 +2°C° 0 mm 0 mps 763 mmHg 73%
    19:00 +1°C° 0 mm 0 mps 764 mmHg 76%
    20:00 +1°C° 0 mm 0 mps 764 mmHg 77%
    21:00 +1°C° 0 mm 0 mps 764 mmHg 79%
    22:00 +1°C° 0 mm 0 mps 764 mmHg 81%
    23:00 +1°C° 0 mm 0 mps 765 mmHg 81%

    24 January, Wednesday

    Time Temperature Precipitation Wind Pressure Humidity
    00:00 0°C° 0 mm 0 mps 765 mmHg 82%
    01:00 0°C° 0 mm 0 mps 765 mmHg 83%
    02:00 0°C° 0 mm 0 mps 765 mmHg 84%
    03:00 0°C° 0 mm 0 mps 765 mmHg 84%
    04:00 0°C° 0 mm 0 mps 765 mmHg 85%
    05:00 +1°C° 0 mm 1 mps 765 mmHg 85%
    06:00 +1°C° 0 mm 1 mps 766 mmHg 85%
    07:00 +1°C° 0 mm 1 mps 766 mmHg 85%
    08:00 +2°C° 0 mm 1 mps 766 mmHg 80%
    09:00 +4°C° 0 mm 1 mps 766 mmHg 75%
    10:00 +5°C° 0 mm 1 mps 766 mmHg 70%
    11:00 +6°C° 0 mm 1 mps 766 mmHg 68%
    12:00 +7°C° 0 mm 1 mps 766 mmHg 65%
    13:00 +7°C° 0 mm 1 mps 765 mmHg 62%
    14:00 +7°C° 0 mm 1 mps 765 mmHg 66%
    15:00 +5°C° 0 mm 2 mps 765 mmHg 70%
    16:00 +4°C° 0 mm 2 mps 765 mmHg 74%
    17:00 +3°C° 0 mm 2 mps 765 mmHg 76%
    18:00 +2°C° 0 mm 2 mps 765 mmHg 79%
    19:00 +2°C° 0 mm 2 mps 765 mmHg 81%
    20:00 +1°C° 0 mm 2 mps 765 mmHg 82%
    21:00 +1°C° 0 mm 2 mps 765 mmHg 82%
    22:00 +1°C° 0 mm 2 mps 765 mmHg 82%
    23:00 +1°C° 0 mm 2 mps 764 mmHg 82%

    25 January, Thursday

    Time Temperature Precipitation Wind Pressure Humidity
    00:00 +1°C° 0 mm 2 mps 764 mmHg 81%
    01:00 +1°C° 0 mm 2 mps 764 mmHg 81%
    02:00 +1°C° 0 mm 2 mps 763 mmHg 80%
    03:00 +1°C° 0 mm 2 mps 763 mmHg 79%
    04:00 +1°C° 0 mm 2 mps 762 mmHg 78%
    05:00 +1°C° 0 mm 2 mps 762 mmHg 77%
    06:00 +1°C° 0 mm 2 mps 762 mmHg 75%
    07:00 +1°C° 0 mm 2 mps 762 mmHg 74%
    08:00 +2°C° 0 mm 2 mps 762 mmHg 68%
    09:00 +4°C° 0 mm 2 mps 762 mmHg 63%
    10:00 +5°C° 0 mm 2 mps 761 mmHg 57%
    11:00 +7°C° 0 mm 1 mps 761 mmHg 54%
    12:00 +9°C° 0 mm 1 mps 760 mmHg 52%
    13:00 +10°C° 0 mm 1 mps 760 mmHg 49%
    14:00 +9°C° 0 mm 1 mps 759 mmHg 54%
    15:00 +8°C° 0 mm 1 mps 759 mmHg 59%
    16:00 +7°C° 0 mm 1 mps 759 mmHg 63%
    17:00 +6°C° 0 mm 1 mps 759 mmHg 66%
    18:00 +5°C° 0 mm 1 mps 759 mmHg 69%
    19:00 +5°C° 0 mm 1 mps 759 mmHg 72%
    20:00 +4°C° 0 mm 1 mps 759 mmHg 73%
    21:00 +4°C° 0 mm 1 mps 759 mmHg 74%
    22:00 +4°C° 0 mm 1 mps 759 mmHg 75%
    23:00 +4°C° 0 mm 1 mps 759 mmHg 75%

    26 January, Friday

    Time Temperature Precipitation Wind Pressure Humidity
    00:00 +3°C° 0 mm 1 mps 759 mmHg 76%
    01:00 +3°C° 0 mm 1 mps 758 mmHg 76%
    02:00 +3°C° 0 mm 1 mps 758 mmHg 76%
    03:00 +3°C° 0 mm 1 mps 758 mmHg 76%
    04:00 +3°C° 0 mm 1 mps 757 mmHg 76%
    05:00 +3°C° 0 mm 1 mps 758 mmHg 76%
    06:00 +3°C° 0 mm 1 mps 758 mmHg 75%
    07:00 +1°C° 0 mm 2 mps 758 mmHg 75%
    08:00 +3°C° 0 mm 2 mps 758 mmHg 70%
    09:00 +5°C° 0 mm 2 mps 758 mmHg 65%
    10:00 +6°C° 0 mm 2 mps 758 mmHg 59%
    11:00 +7°C° 0 mm 2 mps 757 mmHg 57%
    12:00 +9°C° 0 mm 2 mps 757 mmHg 54%
    13:00 +10°C° 0 mm 2 mps 757 mmHg 52%
    14:00 +9°C° 0 mm 2 mps 757 mmHg 56%
    15:00 +9°C° 0 mm 2 mps 757 mmHg 59%
    16:00 +8°C° 0 mm 2 mps 757 mmHg 63%
    17:00 +7°C° 0 mm 2 mps 757 mmHg 66%
    18:00 +6°C° 0 mm 2 mps 757 mmHg 70%
    19:00 +5°C° 0 mm 2 mps 758 mmHg 73%
    20:00 +5°C° 0 mm 2 mps 758 mmHg 74%
    21:00 +5°C° 0 mm 2 mps 758 mmHg 76%
    22:00 +4°C° 0 mm 2 mps 759 mmHg 77%
    23:00 +4°C° 0 mm 2 mps 759 mmHg 77%
    Show more